Date,TemperatureHighF,TemperatureAvgF,TemperatureLowF,DewpointHighF,DewpointAvgF,DewpointLowF,HumidityHigh,HumidityAvg,HumidityLow,PressureMaxIn,PressureMinIn,WindSpeedMaxMPH,WindSpeedAvgMPH,GustSpeedMaxMPH,PrecipitationSumIn
2013-1-1,79,72,65,63,60,57,84,66,54,30.07,29.91,16,4,0,0.00
2013-1-2,82,70,59,68,63,59,99,81,49,29.95,29.84,7,2,0,0.00
2013-1-3,81,73,66,68,67,65,99,83,62,30.00,29.88,8,3,0,0.00
2013-1-4,82,72,65,71,68,64,99,89,64,30.09,29.96,9,3,0,0.00
2013-1-5,75,69,64,71,68,64,99,96,83,30.11,30.01,8,3,0,0.10
2013-1-6,82,72,64,73,68,64,99,89,68,30.04,29.90,12,3,0,0.00
2013-1-7,76,70,67,71,69,66,99,96,83,30.01,29.91,8,3,0,0.18
2013-1-8,82,75,69,74,71,69,99,89,74,30.06,29.93,13,5,0,0.23
2013-1-9,82,77,73,72,71,69,96,82,72,30.14,30.02,19,7,0,0.00
2013-1-10,80,76,73,70,67,64,86,74,58,30.16,30.04,17,8,0,0.00
2013-1-11,81,75,72,70,68,67,89,79,68,30.12,30.01,12,6,0,0.00
2013-1-12,81,75,68,69,67,65,94,77,60,30.04,29.95,11,5,0,0.00
2013-1-13,81,75,70,68,66,62,87,73,58,29.99,29.93,14,6,0,0.00
2013-1-14,80,73,64,68,65,62,98,76,59,30.03,29.97,14,4,0,0.00
2013-1-15,79,72,65,68,66,64,99,81,67,29.99,29.90,12,4,0,0.00
2013-1-16,81,72,62,70,67,62,99,85,63,29.96,29.87,12,3,0,0.01
2013-1-17,81,71,61,72,66,52,99,85,68,29.95,29.83,20,5,0,0.04
2013-1-18,72,63,51,59,53,45,84,70,60,30.09,29.95,14,7,0,0.00
2013-1-19,72,69,65,69,64,59,99,87,69,30.08,29.96,8,3,0,0.32
2013-1-20,82,70,64,69,66,63,99,88,61,30.00,29.86,8,3,0,0.22
2013-1-21,78,70,65,72,68,64,99,92,72,29.92,29.81,7,3,0,0.20
2013-1-22,76,68,62,64,59,52,99,74,57,30.07,29.85,16,6,0,0.00
2013-1-23,74,67,60,58,55,52,85,67,46,30.16,30.05,13,6,0,0.00
2013-1-24,76,65,58,55,51,40,88,64,35,30.15,30.04,14,4,0,0.00
2013-1-25,77,66,57,60,55,51,90,70,50,30.15,30.03,9,3,0,0.00
2013-1-26,78,67,58,61,57,50,99,74,44,30.12,30.01,10,3,0,0.00
2013-1-27,78,70,60,63,60,58,99,73,52,30.15,30.06,14,5,0,0.00
2013-1-28,79,74,71,68,64,60,85,71,59,30.17,30.07,14,7,0,0.00
2013-1-29,79,74,70,71,68,66,99,82,71,30.09,29.97,12,5,0,0.01
2013-1-30,80,74,70,69,66,64,93,76,63,29.97,29.81,19,6,0,0.00
2013-1-31,72,66,57,71,58,40,99,78,48,30.04,29.80,13,5,0,0.01
2013-2-1,72,61,52,55,48,37,75,61,51,30.14,30.02,15,6,0,0.00
2013-2-2,74,63,54,55,48,36,96,60,44,30.13,29.97,16,4,0,0.00
2013-2-3,74,62,53,56,48,36,99,64,26,30.02,29.92,9,3,0,0.00
2013-2-4,77,62,50,56,48,39,98,63,28,30.01,29.88,9,3,0,0.00
2013-2-5,78,66,53,64,58,53,99,79,48,29.94,29.85,10,2,0,0.00
2013-2-6,79,70,59,66,62,59,99,80,62,29.96,29.88,9,3,0,0.00
2013-2-7,82,74,66,66,64,62,89,74,54,29.93,29.79,9,4,0,0.00
2013-2-8,83,73,67,70,66,60,98,81,49,29.89,29.76,11,4,0,0.00
2013-2-9,79,71,64,67,64,60,99,79,57,30.03,29.87,17,6,0,0.00
2013-2-10,75,71,68,64,62,58,82,71,64,30.12,30.00,16,8,0,0.00
2013-2-11,79,72,67,66,63,61,86,73,62,30.08,29.96,14,5,0,0.00
2013-2-12,84,74,62,69,66,62,99,80,48,29.97,29.81,14,4,0,0.00
2013-2-13,88,76,67,72,70,67,99,81,50,29.86,29.73,13,6,0,0.00
2013-2-14,79,70,62,72,68,62,99,95,77,29.86,29.71,24,5,0,2.25
2013-2-15,72,66,62,68,65,62,99,97,81,29.87,29.79,9,3,0,0.32
2013-2-16,72,64,54,64,56,43,99,77,42,29.94,29.73,20,7,0,0.00
2013-2-17,58,51,44,44,28,16,71,43,22,30.18,29.94,14,7,0,0.00
2013-2-18,69,59,46,56,44,31,69,58,46,30.20,30.06,18,7,0,0.00
2013-2-19,79,71,57,67,60,52,94,71,57,30.06,29.93,15,5,0,0.00
2013-2-20,78,70,62,67,64,59,99,84,54,29.97,29.86,11,3,0,0.00
2013-2-21,82,72,63,71,66,63,99,82,60,29.95,29.85,10,4,0,0.00
2013-2-22,82,76,70,72,70,66,93,83,68,29.96,29.87,16,6,0,0.00
2013-2-23,85,76,70,73,71,69,99,84,66,29.90,29.76,15,6,0,0.44
2013-2-24,89,77,70,74,71,67,99,83,50,29.85,29.75,9,4,0,0.00
2013-2-25,84,76,68,74,71,68,99,86,64,29.78,29.66,11,4,0,0.00
2013-2-26,87,80,73,73,71,67,97,75,55,29.74,29.64,20,7,0,0.01
2013-2-27,76,70,62,75,66,61,99,87,61,29.82,29.71,9,4,0,0.77
2013-2-28,71,64,59,64,54,47,99,71,44,29.86,29.76,11,5,0,0.00
2013-3-1,65,61,58,58,51,47,86,68,56,29.85,29.76,10,5,0,0.00
2013-3-2,66,58,50,49,41,34,79,56,37,29.89,29.81,21,7,0,0.00
2013-3-3,62,54,49,47,41,37,89,64,44,30.02,29.83,16,6,0,0.00
2013-3-4,68,54,41,46,36,27,88,55,22,30.08,29.99,14,5,0,0.00
2013-3-5,76,63,47,57,53,46,99,72,48,30.05,29.94,12,4,0,0.00
2013-3-6,78,64,53,63,51,32,99,68,27,29.95,29.79,23,8,0,0.01
2013-3-7,72,59,47,56,44,35,96,61,36,30.05,29.94,11,5,0,0.00
2013-3-8,76,62,52,54,50,42,99,68,30,30.07,29.96,11,4,0,0.00
2013-3-9,75,65,54,56,53,50,93,68,50,30.05,29.97,16,5,0,0.00
2013-3-10,76,70,65,60,56,52,73,61,47,30.01,29.92,16,7,0,0.00
2013-3-11,78,72,68,63,60,57,79,67,50,29.96,29.81,14,7,0,0.00
2013-3-12,81,74,69,70,66,62,88,76,65,29.85,29.75,12,6,0,0.00
2013-3-13,75,66,56,66,54,43,97,71,37,29.98,29.83,13,6,0,0.00
2013-3-14,71,61,54,53,46,38,90,62,31,30.06,29.94,14,6,0,0.00
2013-3-15,72,62,52,54,50,45,90,66,43,30.12,30.00,11,4,0,0.00
2013-3-16,76,64,53,60,54,50,99,72,42,30.06,29.94,9,3,0,0.00
2013-3-17,77,67,57,61,59,56,99,75,54,30.01,29.88,11,3,0,0.00
2013-3-18,81,71,63,71,66,61,99,85,63,29.93,29.81,16,4,0,0.63
2013-3-19,82,73,67,71,68,65,99,87,58,29.85,29.69,16,4,0,0.02
2013-3-20,86,73,63,72,65,56,99,78,45,29.82,29.65,13,4,0,0.00
2013-3-21,77,66,56,63,54,43,99,68,31,29.80,29.67,14,5,0,0.00
2013-3-22,76,67,53,70,60,53,99,80,57,29.86,29.75,13,4,0,0.00
2013-3-23,88,78,70,75,72,69,99,84,55,29.84,29.65,14,4,0,0.00
2013-3-24,90,80,72,75,72,67,99,79,53,29.74,29.53,21,9,0,0.04
2013-3-25,80,73,64,74,59,39,99,67,33,29.85,29.59,14,6,0,0.08
2013-3-26,67,60,52,42,37,30,56,43,27,30.08,29.84,19,8,0,0.00
2013-3-27,70,56,46,47,40,33,78,55,29,30.12,30.03,12,6,0,0.00
2013-3-28,73,61,50,50,44,32,80,57,28,30.14,30.02,13,5,0,0.00
2013-3-29,75,65,54,54,49,45,81,59,41,30.15,30.05,12,4,0,0.00
2013-3-30,76,66,55,59,52,48,99,65,40,30.12,30.02,12,4,0,0.00
2013-3-31,81,71,58,66,62,55,99,73,53,30.05,29.90,11,5,0,0.00
2013-4-1,88,77,67,72,67,61,98,74,40,29.91,29.78,16,6,0,0.00
2013-4-2,85,73,65,68,66,63,99,80,48,29.93,29.84,10,4,0,0.00
2013-4-3,84,76,69,70,68,67,95,79,60,29.92,29.84,14,5,0,0.00
2013-4-4,85,76,68,74,70,68,99,85,66,29.90,29.76,26,6,0,0.68
2013-4-5,72,68,64,70,67,64,99,97,87,29.85,29.67,11,5,0,0.39
2013-4-6,76,68,58,66,62,58,99,80,58,29.94,29.77,14,7,0,0.01
2013-4-7,77,73,69,65,63,60,78,70,60,29.99,29.88,12,7,0,0.00
2013-4-8,83,73,61,65,62,58,99,69,47,29.99,29.89,11,4,0,0.00
2013-4-9,81,75,71,70,67,64,94,78,58,30.00,29.89,14,6,0,0.09
2013-4-10,84,77,71,73,70,67,89,81,68,29.96,29.85,14,7,0,0.00
2013-4-11,85,78,75,74,72,71,92,84,69,29.87,29.74,16,8,0,0.00
2013-4-12,88,80,77,77,75,74,93,85,69,29.80,29.71,16,7,0,0.29
2013-4-13,87,76,71,76,73,69,99,90,69,29.82,29.73,12,3,0,0.15
2013-4-14,86,79,71,76,74,71,99,86,68,29.82,29.75,13,5,0,0.01
2013-4-15,90,76,70,76,73,69,99,92,63,29.91,29.77,17,3,0,0.91
2013-4-16,86,78,70,78,73,70,99,86,69,29.98,29.87,15,6,0,0.01
2013-4-17,84,78,72,71,69,66,91,75,58,29.96,29.86,14,6,0,0.00
2013-4-18,86,79,73,74,71,68,90,77,63,29.91,29.82,13,6,0,0.00
2013-4-19,88,81,76,74,73,70,88,76,59,29.90,29.81,17,7,0,0.00
2013-4-20,90,78,71,77,73,70,99,86,54,29.93,29.81,12,4,0,0.27
2013-4-21,85,78,71,74,72,71,99,84,67,29.94,29.83,14,5,0,0.00
2013-4-22,86,76,71,72,70,67,98,84,59,29.89,29.77,12,4,0,0.00
2013-4-23,84,75,67,69,66,60,99,74,55,29.94,29.79,18,8,0,0.00
2013-4-24,84,77,68,66,64,60,87,64,51,29.99,29.88,11,5,0,0.00
2013-4-25,82,76,69,64,62,59,81,63,46,30.05,29.92,14,5,0,0.00
2013-4-26,83,75,64,67,64,61,97,69,54,30.07,29.96,15,6,0,0.00
2013-4-27,81,77,71,67,64,62,75,65,53,30.06,29.94,15,7,0,0.00
2013-4-28,82,77,72,66,63,61,73,63,50,29.97,29.85,12,7,0,0.00
2013-4-29,84,77,72,71,68,63,85,73,58,29.89,29.78,14,6,0,0.00
2013-4-30,86,76,70,73,70,68,99,82,61,29.85,29.77,13,3,0,0.11
2013-5-1,85,74,69,75,71,69,99,90,64,29.85,29.76,10,3,0,0.34
2013-5-2,80,71,67,74,70,67,99,96,79,29.80,29.64,17,5,0,3.03
2013-5-3,88,75,68,72,70,67,99,86,50,29.66,29.52,11,4,0,0.42
2013-5-4,90,76,67,71,68,66,99,78,48,29.65,29.53,12,5,0,0.01
2013-5-5,83,74,66,68,62,52,99,70,36,29.78,29.61,14,6,0,0.00
2013-5-6,86,72,58,63,60,52,99,67,44,29.87,29.76,9,3,0,0.00
2013-5-7,86,74,62,66,60,57,89,65,40,29.92,29.82,13,5,0,0.00
2013-5-8,91,75,61,66,60,55,98,65,34,29.99,29.89,9,4,0,0.00
2013-5-9,88,78,66,73,68,60,88,71,46,29.98,29.91,11,4,0,0.00
2013-5-10,90,81,72,74,72,69,97,77,52,29.99,29.87,14,4,0,0.00
2013-5-11,88,79,73,76,74,71,99,85,63,29.93,29.82,12,4,0,0.22
2013-5-12,92,78,71,76,72,70,99,84,49,29.91,29.79,11,3,0,0.38
2013-5-13,88,78,71,73,69,63,99,76,45,29.94,29.84,11,4,0,0.01
2013-5-14,81,76,70,66,60,55,79,60,44,30.03,29.92,14,7,0,0.00
2013-5-15,82,75,66,65,61,57,84,62,48,30.05,29.94,16,6,0,0.00
2013-5-16,85,76,65,65,62,58,91,63,47,29.97,29.89,12,5,0,0.00
2013-5-17,88,77,69,73,70,63,97,79,57,29.95,29.85,13,4,0,0.00
2013-5-18,87,79,72,76,72,70,99,82,65,29.95,29.88,12,4,0,0.11
2013-5-19,87,80,71,72,70,67,96,73,55,29.95,29.85,11,5,0,0.00
2013-5-20,79,74,69,74,72,68,99,92,81,29.94,29.82,14,4,0,4.14
2013-5-21,83,76,69,75,71,68,99,87,67,29.92,29.78,12,4,0,0.01
2013-5-22,87,77,72,75,72,69,96,85,60,29.82,29.74,15,3,0,0.18
2013-5-23,94,82,73,75,72,66,99,76,40,29.85,29.76,11,5,0,0.00
2013-5-24,93,85,76,75,72,66,96,66,48,29.92,29.85,12,6,0,0.00
2013-5-25,85,80,74,76,68,64,98,69,51,30.01,29.89,18,8,0,0.05
2013-5-26,84,78,68,68,64,59,87,64,54,30.03,29.95,14,6,0,0.00
2013-5-27,84,78,72,73,69,63,95,74,64,30.02,29.91,17,8,0,0.27
2013-5-28,83,78,73,74,72,71,97,83,69,29.96,29.89,18,9,0,0.35
2013-5-29,82,75,70,74,72,67,99,88,64,29.94,29.87,21,7,0,2.91
2013-5-30,84,78,71,74,72,69,93,81,71,29.93,29.85,19,10,0,0.15
2013-5-31,85,79,74,75,73,70,96,84,72,29.91,29.85,16,8,0,0.20
2013-6-1,85,77,73,77,74,73,99,93,74,29.88,29.82,11,3,0,1.56
2013-6-2,90,80,72,77,73,71,99,82,58,29.85,29.76,11,2,0,0.02
2013-6-3,88,78,72,77,74,72,99,87,64,29.89,29.75,11,2,0,0.73
2013-6-4,85,78,73,77,74,72,99,88,67,29.90,29.80,9,2,0,0.03
2013-6-5,84,81,78,78,76,74,93,86,77,29.87,29.74,10,5,0,0.11
2013-6-6,88,80,74,80,75,71,98,87,71,29.76,29.62,18,8,0,1.42
2013-6-7,91,78,73,77,74,72,99,88,61,29.84,29.70,13,5,0,0.45
2013-6-8,87,79,74,79,75,74,99,90,71,29.96,29.82,10,3,0,1.03
2013-6-9,88,82,77,76,75,73,94,78,64,29.97,29.89,14,6,0,0.00
2013-6-10,89,83,79,77,75,74,88,78,64,29.94,29.86,12,6,0,0.00
2013-6-11,90,82,78,78,76,73,93,82,63,29.95,29.86,9,4,0,0.12
2013-6-12,90,80,76,78,76,72,97,87,64,29.95,29.86,7,1,0,0.10
2013-6-13,91,81,74,78,74,71,99,81,53,29.90,29.79,9,2,0,0.00
2013-6-14,96,82,74,76,72,68,97,74,46,29.82,29.73,11,4,0,0.00
2013-6-15,92,83,75,76,74,70,97,76,52,29.92,29.78,10,3,0,0.00
2013-6-16,91,84,76,77,75,73,98,76,57,29.94,29.86,11,4,0,0.00
2013-6-17,93,85,76,77,75,74,95,73,56,29.93,29.85,10,4,0,0.00
2013-6-18,92,85,76,77,75,73,96,74,56,29.91,29.84,10,4,0,0.00
2013-6-19,93,84,78,78,75,73,94,74,55,29.90,29.82,12,4,0,0.00
2013-6-20,93,82,73,76,73,67,90,73,51,29.94,29.87,11,4,0,0.00
2013-6-21,92,83,76,76,73,71,93,73,53,29.97,29.88,14,4,0,0.00
2013-6-22,90,84,76,75,73,70,92,71,56,29.95,29.89,12,5,0,0.00
2013-6-23,90,83,77,76,74,71,87,74,60,29.99,29.90,14,6,0,0.00
2013-6-24,89,83,79,75,71,-100,81,69,58,30.02,29.92,13,-6,0,0.00
2013-6-25,91,84,79,77,74,72,86,74,61,29.99,29.88,14,6,0,0.00
2013-6-26,92,83,77,76,74,73,93,76,57,29.93,29.86,11,5,0,0.09
2013-6-27,92,82,77,77,74,71,93,79,61,29.91,29.79,9,2,0,0.03
2013-6-28,94,82,73,76,74,70,97,78,53,29.85,29.69,14,3,0,0.30
2013-6-29,96,81,74,77,74,71,98,83,47,29.78,29.65,19,3,0,0.59
2013-6-30,90,79,73,77,74,70,99,86,59,29.80,29.69,13,4,0,2.33
2013-7-1,90,81,75,78,75,70,99,85,66,29.90,29.76,18,5,0,0.07
2013-7-2,89,83,76,78,76,73,94,82,69,29.96,29.81,14,5,0,0.03
2013-7-3,88,82,78,78,75,74,91,82,72,29.97,29.90,18,6,0,0.34
2013-7-4,89,84,77,77,75,72,89,77,65,30.02,29.91,17,7,0,0.00
2013-7-5,86,80,74,77,75,70,95,85,74,30.00,29.91,16,6,0,0.68
2013-7-6,89,82,80,76,74,73,83,77,66,29.97,29.89,14,6,0,0.04
2013-7-7,88,83,78,77,75,73,84,75,65,29.96,29.87,17,7,0,0.00
2013-7-8,90,83,77,76,73,70,85,74,53,30.00,29.92,14,5,0,0.00
2013-7-9,89,81,75,75,72,71,90,76,62,29.99,29.90,11,4,0,0.01
2013-7-10,87,79,71,76,73,69,96,83,68,29.95,29.85,10,4,0,0.54
2013-7-11,92,82,75,77,74,72,96,77,52,29.90,29.79,11,3,0,0.00
2013-7-12,93,80,72,77,74,69,97,84,54,29.83,29.75,19,2,0,2.12
2013-7-13,87,75,72,78,72,70,97,92,69,29.86,29.77,10,2,0,1.26
2013-7-14,90,78,72,76,73,71,97,85,60,29.93,29.82,14,4,0,0.18
2013-7-15,89,80,72,78,73,71,97,81,60,29.94,29.85,10,4,0,0.42
2013-7-16,84,77,72,74,72,69,95,83,63,29.99,29.89,16,6,0,0.50
2013-7-17,82,78,74,75,73,70,93,84,76,29.99,29.88,10,4,0,0.09
2013-7-18,88,77,72,77,73,70,97,88,70,29.96,29.90,14,4,0,0.83
2013-7-19,89,81,74,79,76,73,98,86,70,29.97,29.88,14,4,0,0.00
2013-7-20,88,82,74,80,77,71,95,85,73,29.95,29.87,11,4,0,0.40
2013-7-21,90,81,75,80,76,72,97,86,70,29.99,29.87,9,2,0,0.04
2013-7-22,93,83,75,78,76,72,95,79,56,29.98,29.90,11,3,0,0.00
2013-7-23,97,85,76,79,75,72,93,75,45,29.95,29.81,11,4,0,0.00
2013-7-24,95,85,77,77,74,66,92,70,46,29.86,29.74,12,5,0,0.00
2013-7-25,95,85,76,77,75,73,94,74,55,29.85,29.75,11,4,0,0.00
2013-7-26,94,83,78,78,76,74,92,79,56,29.86,29.77,12,5,0,0.01
2013-7-27,93,80,75,78,75,73,95,86,59,29.85,29.77,12,3,0,0.75
2013-7-28,88,79,73,79,75,71,94,87,75,29.91,29.79,11,2,0,0.73
2013-7-29,91,81,75,78,76,74,96,84,63,29.97,29.87,14,3,0,0.00
2013-7-30,90,84,75,80,77,73,93,80,67,29.99,29.90,12,4,0,0.12
2013-7-31,91,84,77,79,76,73,92,77,61,29.95,29.84,12,5,0,0.00
2013-8-1,90,83,78,77,74,73,88,76,61,29.89,29.78,14,5,0,0.00
2013-8-2,91,81,76,77,74,72,94,81,57,29.89,29.75,10,3,0,0.03
2013-8-3,89,78,72,79,74,69,95,89,71,29.99,29.86,19,2,0,0.62
2013-8-4,95,81,75,79,75,72,97,83,54,29.95,29.80,16,2,0,0.07
2013-8-5,93,81,76,80,76,72,95,84,61,29.88,29.77,14,3,0,0.29
2013-8-6,93,83,76,79,76,73,96,81,63,29.81,29.72,8,2,0,0.00
2013-8-7,91,84,76,79,76,74,93,79,63,29.83,29.73,11,2,0,0.05
2013-8-8,94,85,81,80,76,74,85,76,58,29.86,29.76,4,1,0,0.02
2013-8-9,89,83,79,79,75,72,89,79,65,29.90,29.79,3,0,0,0.08
2013-8-10,91,84,79,79,77,75,88,78,65,29.95,29.87,3,0,0,0.00
2013-8-11,91,85,80,79,77,76,87,77,66,29.97,29.90,5,1,0,0.00
2013-8-12,90,84,77,78,76,74,91,78,63,29.94,29.85,5,1,0,0.00
2013-8-13,92,85,79,79,76,74,90,76,58,29.89,29.78,3,0,0,0.00
2013-8-14,92,84,77,78,76,74,93,77,59,29.87,29.75,3,0,0,0.00
2013-8-15,89,82,75,79,76,73,95,85,70,29.90,29.79,3,0,0,0.22
2013-8-16,92,83,78,80,77,74,92,83,65,29.90,29.82,3,0,0,0.00
2013-8-20,88,78,81,78,63,-100,89,73,68,29.90,29.82,3,-76,0,0.00
2013-8-21,88,83,79,80,78,75,94,84,73,29.91,29.83,6,1,0,0.06
2013-8-22,90,84,79,81,78,75,90,80,67,29.90,29.78,4,1,0,0.08
2013-8-23,90,83,77,81,77,75,96,83,68,29.85,29.76,3,0,0,0.00
2013-8-24,92,84,78,79,76,74,93,78,60,29.95,29.81,6,1,0,0.00
2013-8-25,88,82,78,77,75,74,90,81,69,29.98,29.86,4,1,0,0.00
2013-8-26,90,81,72,78,75,70,95,82,62,29.95,29.84,7,0,0,0.62
2013-8-27,84,78,74,77,74,72,97,86,69,29.89,29.80,2,0,0,0.00
2013-8-28,87,80,75,78,75,72,94,86,66,29.87,29.78,3,0,0,0.12
2013-8-29,89,82,75,79,75,70,91,81,67,29.86,29.76,4,0,0,0.00
2013-8-30,91,83,76,77,75,72,93,78,57,29.83,29.73,3,0,0,0.00
2013-8-31,90,81,75,79,75,71,92,82,65,29.82,29.75,4,0,0,0.02
2013-9-1,90,80,75,79,76,72,96,86,67,29.84,29.77,2,0,0,0.00
2013-9-2,93,79,74,80,75,72,95,88,63,29.88,29.77,4,0,0,0.91
2013-9-3,88,80,73,78,75,72,97,86,67,29.86,29.75,3,0,0,0.01
2013-9-4,89,82,78,80,78,75,94,86,76,29.90,29.77,3,0,0,0.00
2013-9-5,92,84,80,80,78,76,90,81,66,29.90,29.81,4,1,0,0.02
2013-9-6,91,84,78,80,78,76,95,82,63,29.88,29.75,4,1,0,0.03
2013-9-7,88,80,73,78,75,71,94,88,71,29.82,29.74,5,0,0,0.24
2013-9-8,87,76,74,78,74,72,95,92,72,29.79,29.72,1,0,0,0.01